Aérodrome :
LOGIN :

S'inscrire | Disclaimer

   EN    FR    IT 

 










Légende :    VFR   VFR Marginal   IFR   IFR Intensif   IFR Très Intensif
Visi : 
Plafond : 
>= 8 km
>= 3000ft
5 à 8 km
1000 à 3000 ft
1500m à 5 km
500 à 1000 ft
800 à 1500m
200 à 500 ft
< 800m
< 200 ft
Symboles :   Orages  Brouillard  Fortes neiges  Fortes précipitations  Vent > 20 kt
SIGMETs :   Divers  Orages  Givrage  Turbulence  Onde Orograph.  Cendres Volcan.







- Altitude de l'aérodrome : 1345 ft
- Code IATA : FRZ


ETHF - Fritzlar

DERNIER METAR :
  • 101220Z 29014G24KT 9999 -SHRA BKN030 BKN070 05/M00 Q1018 BLU BLU

METARs EXPIRÉS :
  • 101120Z 29012G22KT 9999 VCSH BKN030 SCT040 05/M00 Q1018 BLU BLU
  • 101020Z 30012KT 9999 BKN033 SCT100 05/M01 Q1018 BLU BLU TEMPO WHT

TAF COR TAF ETHF
Valide du 10 à 12h jusqu'au 10 à 21h UTC


101119Z 1012/1021 29010KT 9999 NSW BKN035
PROB30 1012/1021 30012G22KT 6000 SHRA FEW012 BKN022TCU
Pas de NOTAMs connus pour ce terrain.



MET'MAP, la Météo Aéronautique d'un coup d'oeil ! - Copyright ORBIFLY Décembre 2007 - Disclaimer

ORBIFLY MET'MAP TEAM :

Programmation & Développement : Alexandra Zaïnal
Conception & Développement : Baudouin d'Aumeries
Co-Programmation & Développement : Marc-Olivier Méhu
Soutien technique & logistique : Manuel Goepfert

Contact : metmap@orbifly.com




SOURCES & CREDITS :

   NOAA